Location: Brienzwiler
(46.7508°N, 8.1014°E)
Time: 07:31:48
(UTC+00:00)

Cosmos 1680 Rocket - Pass Details

Date: 05 July 2020
Orbit: 760 x 781 km, 74.1° (Epoch: 05 August)

Event Time Altitude Azimuth Distance (km) Brightness Sun altitude
Exits shadow 21:35:41 25° 152° (SSE) 1,520 4.4 -15.7°
Maximum altitude 21:38:04 39° 103° (ESE) 1,155 4.1 -15.9°
Drops below altitude 10° 21:42:59 10° 36° (NE) 2,345 6.4 -16.3°
Sets 21:45:30 0° 29° (NNE) 3,277 7.3 -16.5°
